Weather History for Newport, VT

Change the Weather History Date:

Wednesday, May 2, 2012

  Actual Average Record
Temperature  
Mean Temperature 54 °F -  
Max Temperature 63 °F 61 °F 83 °F (1930)
Min Temperature 45 °F 38 °F 24 °F (1946)
Degree Days  
Heating Degree Days 12    
Growing Degree Days 4 (Base 50)    
Moisture  
Dew Point 41 °F    
Average Humidity 65    
Maximum Humidity 80    
Minimum Humidity 49    
Precipitation  
Precipitation 0.00 in - - ()
Sea Level Pressure  
Sea Level Pressure 30.13 in    
Wind  
Wind Speed 8 mph (SSE)    
Max Wind Speed 13 mph    
Max Gust Speed 21 mph    
Visibility 10 miles    
Events      
Averages and records for this station are not official NWS values.
T = Trace of Precipitation, MM = Missing Value Source: NWS Daily Summary

Daily Weather History Graph

Daily Weather History Graph

Search for Another Location

Airport:

Trip Planner

Search our weather history database for the weather conditions in past years. The results will help you decide how hot, cold, wet, or windy it might be!

Date:

Astronomy

May. 02, 2012 Rise Set
Actual Time 5:36 AM EDT 7:56 PM EDT
Civil Twilight 5:03 AM EDT 8:28 PM EDT
Nautical Twilight 4:23 AM EDT 9:09 PM EDT
Astronomical Twilight 3:38 AM EDT 9:54 PM EDT
Moon 3:56 PM EDT 3:15 AM EDT
Length of Visible Light 15h 24m
Length of Day
14h 19m
Waxing Gibbous, 83% of the Moon is Illuminated
May 2
Waxing Gibbous
May 5
Full
May 12
Last Quarter
May 20
New
May 28
First Quarter

Hourly Weather History & Observations

Time (EDT) Temp. Windchill Dew Point Humidity Pressure Visibility Wind Dir Wind Speed Gust Speed Precip Events Conditions
12:35 AM 46.4 °F 42.9 °F 38.3 °F 73% 30.11 in 10.0 mi South 6.9 mph - N/A   Overcast
12:55 AM 45.9 °F 42.3 °F 38.5 °F 75% 30.11 in 10.0 mi South 6.9 mph - N/A   Overcast
1:15 AM 45.5 °F 42.5 °F 38.8 °F 78% 30.12 in 10.0 mi South 5.8 mph - N/A   Overcast
1:35 AM 45.5 °F 43.2 °F 39.0 °F 78% 30.12 in 7.0 mi South 4.6 mph - N/A   Overcast
1:55 AM 45.1 °F 41.4 °F 39.0 °F 79% 30.12 in 10.0 mi SSE 6.9 mph - N/A   Overcast
2:15 AM 45.1 °F 40.8 °F 39.2 °F 80% 30.11 in 10.0 mi South 8.1 mph - N/A   Overcast
2:35 AM 45.1 °F 40.3 °F 38.8 °F 79% 30.11 in 10.0 mi SSE 9.2 mph - N/A   Overcast
2:55 AM 45.5 °F 40.8 °F 38.5 °F 76% 30.12 in 10.0 mi SSE 9.2 mph - N/A   Overcast
3:15 AM 45.5 °F 41.3 °F 38.5 °F 76% 30.11 in 10.0 mi SSE 8.1 mph - N/A   Overcast
3:55 AM 45.1 °F 40.8 °F 38.3 °F 77% 30.12 in 10.0 mi South 8.1 mph - N/A   Overcast
4:15 AM 45.3 °F 40.6 °F 38.3 °F 76% 30.12 in 10.0 mi SSE 9.2 mph - N/A   Overcast
4:35 AM 45.5 °F 41.8 °F 38.3 °F 76% 30.12 in 10.0 mi South 6.9 mph - N/A   Overcast
4:55 AM 45.5 °F 41.8 °F 38.3 °F 76% 30.13 in 10.0 mi South 6.9 mph - N/A   Overcast
5:15 AM 45.5 °F 41.8 °F 38.3 °F 76% 30.13 in 10.0 mi SSE 6.9 mph - N/A   Overcast
5:55 AM 45.5 °F 42.5 °F 38.3 °F 76% 30.15 in 10.0 mi SSE 5.8 mph - N/A   Overcast
6:15 AM 45.3 °F 41.6 °F 38.3 °F 76% 30.13 in 10.0 mi SSE 6.9 mph - N/A   Overcast
6:35 AM 45.5 °F 41.8 °F 38.3 °F 76% 30.15 in 10.0 mi South 6.9 mph - N/A   Overcast
7:15 AM 46.4 °F 42.9 °F 38.5 °F 74% 30.15 in 10.0 mi SSE 6.9 mph - N/A   Overcast
7:35 AM 46.4 °F 42.9 °F 38.3 °F 73% 30.16 in 10.0 mi South 6.9 mph - N/A   Overcast
7:55 AM 47.3 °F - 38.3 °F 71% 30.16 in 10.0 mi SSE 8.1 mph - N/A   Overcast
8:15 AM 47.7 °F - 38.5 °F 70% 30.17 in 10.0 mi South 8.1 mph - N/A   Overcast
8:35 AM 47.8 °F - 38.3 °F 70% 30.19 in 10.0 mi SSE 9.2 mph - N/A   Overcast
8:55 AM 48.2 °F - 38.3 °F 69% 30.19 in 10.0 mi South 6.9 mph - N/A   Overcast
9:15 AM 48.6 °F - 39.2 °F 70% 30.18 in 10.0 mi SSE 8.1 mph - N/A   Overcast
9:35 AM 49.3 °F - 39.4 °F 69% 30.17 in 10.0 mi SSE 9.2 mph - N/A   Overcast
9:55 AM 50.5 °F - 39.9 °F 67% 30.17 in 10.0 mi SE 9.2 mph - N/A   Overcast
10:15 AM 50.9 °F - 40.1 °F 67% 30.17 in 10.0 mi South 5.8 mph - N/A   Overcast
10:35 AM 52.0 °F - 40.3 °F 64% 30.17 in 10.0 mi SSE 9.2 mph - N/A   Overcast
10:55 AM 53.4 °F - 41.5 °F 64% 30.16 in 10.0 mi South 8.1 mph - N/A   Overcast
11:15 AM 54.5 °F - 41.5 °F 62% 30.16 in 10.0 mi South 8.1 mph - N/A   Overcast
11:35 AM 55.2 °F - 41.4 °F 60% 30.17 in 10.0 mi South 5.8 mph - N/A   Overcast
11:55 AM 56.3 °F - 42.3 °F 59% 30.17 in 10.0 mi SE 8.1 mph - N/A   Overcast
12:15 PM 56.3 °F - 41.2 °F 57% 30.17 in 10.0 mi SSE 4.6 mph - N/A   Overcast
12:35 PM 58.1 °F - 43.2 °F 58% 30.17 in 10.0 mi SSE 8.1 mph - N/A   Overcast
12:55 PM 57.7 °F - 43.0 °F 58% 30.16 in 10.0 mi South 4.6 mph - N/A   Overcast
1:15 PM 58.6 °F - 43.3 °F 57% 30.15 in 10.0 mi SE 9.2 mph - N/A   Overcast
1:35 PM 59.0 °F - 43.5 °F 56% 30.14 in 10.0 mi SE 10.4 mph - N/A   Mostly Cloudy
1:55 PM 59.0 °F - 42.6 °F 55% 30.14 in 10.0 mi ESE 6.9 mph - N/A   Mostly Cloudy
2:15 PM 61.7 °F - 43.2 °F 51% 30.13 in 10.0 mi SSE 5.8 mph - N/A   Mostly Cloudy
2:35 PM 61.7 °F - 42.6 °F 50% 30.13 in 10.0 mi SE 9.2 mph - N/A   Mostly Cloudy
2:55 PM 62.2 °F - 43.7 °F 51% 30.12 in 10.0 mi SE 8.1 mph - N/A   Mostly Cloudy
3:15 PM 60.1 °F - 43.3 °F 54% 30.12 in 10.0 mi ESE 8.1 mph - N/A   Overcast
3:35 PM 61.5 °F - 43.5 °F 52% 30.11 in 10.0 mi SE 6.9 mph - N/A   Overcast
3:55 PM 61.7 °F - 43.0 °F 50% 30.11 in 10.0 mi SSE 8.1 mph - N/A   Overcast
4:15 PM 61.7 °F - 43.0 °F 50% 30.11 in 10.0 mi SE 10.4 mph 16.1 mph N/A   Mostly Cloudy
4:35 PM 61.3 °F - 42.1 °F 49% 30.11 in 10.0 mi SSE 10.4 mph - N/A   Scattered Clouds
4:55 PM 58.5 °F - 41.7 °F 54% 30.11 in 10.0 mi SSE 11.5 mph - N/A   Scattered Clouds
5:35 PM 58.5 °F - 41.7 °F 54% 30.11 in 10.0 mi SSE 9.2 mph - N/A   Scattered Clouds
5:55 PM 59.0 °F - 42.3 °F 54% 30.11 in 10.0 mi SSW 8.1 mph - N/A   Clear
6:15 PM 58.3 °F - 42.1 °F 55% 30.11 in 10.0 mi SSW 12.7 mph 16.1 mph N/A   Scattered Clouds
6:35 PM 57.4 °F - 42.1 °F 57% 30.10 in 10.0 mi SSW 9.2 mph - N/A   Scattered Clouds
6:55 PM 56.3 °F - 41.2 °F 57% 30.10 in 10.0 mi SSW 9.2 mph - N/A   Scattered Clouds
7:15 PM 54.9 °F - 41.0 °F 60% 30.11 in 10.0 mi South 10.4 mph - N/A   Scattered Clouds
7:35 PM 54.1 °F - 41.2 °F 62% 30.12 in 10.0 mi SSW 9.2 mph - N/A   Clear
7:55 PM 54.0 °F - 41.0 °F 62% 30.12 in 10.0 mi South 8.1 mph - N/A   Scattered Clouds
8:15 PM 53.4 °F - 41.4 °F 64% 30.11 in 10.0 mi South 3.5 mph - N/A   Overcast
8:35 PM 53.6 °F - 41.9 °F 65% 30.11 in 10.0 mi South 8.1 mph - N/A   Overcast
8:55 PM 53.8 °F - 41.5 °F 63% 30.12 in 10.0 mi South 9.2 mph - N/A   Overcast
9:15 PM 53.6 °F - 41.5 °F 64% 30.12 in 10.0 mi South 8.1 mph - N/A   Overcast
9:35 PM 52.7 °F - 41.7 °F 66% 30.12 in 10.0 mi SSE 12.7 mph - N/A   Mostly Cloudy
9:55 PM 52.7 °F - 41.9 °F 67% 30.12 in 10.0 mi SSE 9.2 mph - N/A   Mostly Cloudy
10:15 PM 52.5 °F - 41.9 °F 67% 30.11 in 10.0 mi SSE 10.4 mph - N/A   Overcast
10:35 PM 52.0 °F - 41.7 °F 68% 30.11 in 10.0 mi SSE 9.2 mph 18.4 mph N/A   Overcast
10:55 PM 51.8 °F - 41.9 °F 69% 30.12 in 10.0 mi SSE 10.4 mph 16.1 mph N/A   Overcast
11:15 PM 51.3 °F - 41.9 °F 70% 30.11 in 10.0 mi SSE 12.7 mph 20.7 mph N/A   Overcast
11:35 PM 51.1 °F - 41.9 °F 71% 30.12 in 10.0 mi SSE 12.7 mph 19.6 mph N/A   Overcast
11:55 PM 50.9 °F - 41.9 °F 71% 30.12 in 10.0 mi SSE 11.5 mph 16.1 mph N/A   Overcast